Location: Glendale
(37.4556°N, 88.6714°W)
Time: 18:27:43
(UTC+00:00)

Geosat - Pass Details

Date: 08 December 2019
Orbit: 763 x 766 km, 108.0° (Epoch: 23 January)

Event Time Altitude Azimuth Distance (km) Brightness Sun altitude
Exits shadow 00:55:29 53° 171° (S) 935 4.3 -26.9°
Drops below altitude 10° 00:59:26 10° 197° (SSW) 2,294 6.7 -27.7°
Sets 01:01:43 0° 200° (SSW) 3,216 7.6 -28.1°
